| time (UTC) | temp F | wind direction | speed MPH | gust MPH | rain 1hr in | rain 24hr in | rain mn in | humidity % | barometer mb |
| 20260903173054 | 76 | 0.0 | 0.0 | 0.00 | 0.00 | 0.00 | 30 | 1020.5 | |
| 20260903171549 | 75 | 0.0 | 0.0 | 0.00 | 0.00 | 0.00 | 22 | 1020.5 | |
| 20260903170046 | 74 | 0.0 | 0.0 | 0.00 | 0.00 | 0.00 | 28 | 1020.5 | |
| 20260903164541 | 72 | 0.0 | 0.0 | 0.00 | 0.00 | 0.00 | 27 | 1020.5 | |
| 20260903163042 | 72 | 0.0 | 0.0 | 0.00 | 0.00 | 0.00 | 28 | 1020.4 | |
| 20260903161532 | 72 | 0.0 | 0.0 | 0.00 | 0.00 | 0.00 | 29 | 1020.5 | |
| 20260903160028 | 71 | 0.0 | 0.0 | 0.00 | 0.00 | 0.00 | 32 | 1020.6 | |
| 20260903154524 | 70 | 0.0 | 0.0 | 0.00 | 0.00 | 0.00 | 33 | 1020.5 | |
| 20260903153020 | 68 | 0.0 | 0.0 | 0.00 | 0.00 | 0.00 | 39 | 1020.5 | |
| 20260903151516 | 68 | 0.0 | 0.0 | 0.00 | 0.00 | 0.00 | 36 | 1020.5 | |
| 20260903150013 | 66 | 0.0 | 0.0 | 0.00 | 0.00 | 0.00 | 26 | 1020.5 | |
| 20260903144507 | 61 | 0.0 | 0.0 | 0.00 | 0.00 | 0.00 | 34 | 1020.5 | |
| 20260903143005 | 57 | 0.0 | 0.0 | 0.00 | 0.00 | 0.00 | 34 | 1020.4 | |
| 20260903141558 | 55 | 0.0 | 0.0 | 0.00 | 0.00 | 0.00 | 36 | 1020.4 | |
| 20260903140053 | 54 | 0.0 | 0.0 | 0.00 | 0.00 | 0.00 | 37 | 1020.1 | |
| 20260903134550 | 54 | 0.0 | 0.0 | 0.00 | 0.00 | 0.00 | 39 | 1019.9 | |
| 20260903133045 | 53 | 0.0 | 0.0 | 0.00 | 0.00 | 0.00 | 42 | 1019.9 | |
| 20260903131550 | 53 | 0.0 | 0.0 | 0.00 | 0.00 | 0.00 | 44 | 1019.9 | |
| 20260903130036 | 53 | 0.0 | 0.0 | 0.00 | 0.00 | 0.00 | 49 | 1019.9 | |
| 20260903124535 | 53 | 0.0 | 0.0 | 0.00 | 0.00 | 0.00 | 51 | 1019.9 | |
| 20260903123037 | 53 | 0.0 | 0.0 | 0.00 | 0.00 | 0.00 | 53 | 1019.8 | |
| 20260903121531 | 53 | 0.0 | 0.0 | 0.00 | 0.00 | 0.00 | 56 | 1019.8 | |
| 20260903120019 | 53 | 0.0 | 0.0 | 0.00 | 0.00 | 0.00 | 57 | 1019.8 | |
| 20260903114515 | 53 | 0.0 | 0.0 | 0.00 | 0.00 | 0.00 | 59 | 1019.8 | |
| 20260903113024 | 53 | 0.0 | 0.0 | 0.00 | 0.00 | 0.00 | 59 | 1019.8 | |
| 20260903111505 | 53 | 0.0 | 0.0 | 0.00 | 0.00 | 0.00 | 57 | 1019.8 | |
| 20260903110000 | 54 | 0.0 | 0.0 | 0.00 | 0.00 | 0.00 | 57 | 1019.8 | |
| 20260903104557 | 54 | 0.0 | 0.0 | 0.00 | 0.00 | 0.00 | 57 | 1019.8 | |
| 20260903103053 | 54 | 0.0 | 0.0 | 0.00 | 0.00 | 0.00 | 58 | 1019.7 | |
| 20260903101551 | 54 | 0.0 | 0.0 | 0.00 | 0.00 | 0.00 | 59 | 1019.8 | |
| 20260903100044 | 55 | 0.0 | 0.0 | 0.00 | 0.00 | 0.00 | 61 | 1019.8 | |
| 20260903094540 | 55 | 0.0 | 0.0 | 0.00 | 0.00 | 0.00 | 61 | 1019.8 | |
| 20260903093041 | 56 | 0.0 | 0.0 | 0.00 | 0.00 | 0.00 | 61 | 1019.9 | |
| 20260903091535 | 56 | 0.0 | 0.0 | 0.00 | 0.00 | 0.00 | 66 | 1020.1 | |
| 20260903090027 | 56 | 0.0 | 0.0 | 0.00 | 0.00 | 0.00 | 67 | 1020.3 | |
| 20260903084524 | 57 | 0.0 | 0.0 | 0.00 | 0.00 | 0.00 | 67 | 1020.3 | |
| 20260903083024 | 57 | 0.0 | 0.0 | 0.00 | 0.00 | 0.00 | 65 | 1020.5 | |
| 20260903081515 | 57 | 0.0 | 0.0 | 0.00 | 0.00 | 0.00 | 66 | 1020.6 | |
| 20260903080011 | 58 | 0.0 | 0.0 | 0.00 | 0.00 | 0.00 | 69 | 1020.7 | |
| 20260903074505 | 58 | 0.0 | 0.0 | 0.00 | 0.00 | 0.00 | 70 | 1020.7 | |
| 20260903073101 | 58 | 0.0 | 0.0 | 0.00 | 0.00 | 0.00 | 70 | 1020.8 | |
| 20260903071556 | 58 | 0.0 | 0.0 | 0.00 | 0.00 | 0.00 | 72 | 1020.8 | |
| 20260903070052 | 59 | 0.0 | 0.0 | 0.00 | 0.00 | 0.00 | 72 | 1020.7 | |
| 20260903064547 | 59 | 0.0 | 0.0 | 0.00 | 0.00 | 0.00 | 73 | 1020.8 | |
| 20260903063043 | 59 | 0.0 | 0.0 | 0.00 | 0.00 | 0.00 | 74 | 1020.8 | |
| 20260903061550 | 60 | 0.0 | 0.0 | 0.00 | 0.00 | 0.00 | 74 | 1020.7 | |
| 20260903060034 | 60 | 0.0 | 0.0 | 0.00 | 0.00 | 0.00 | 72 | 1020.7 | |
| 20260903054530 | 61 | 0.0 | 0.0 | 0.00 | 0.00 | 0.00 | 72 | 1020.9 | |
| 20260903053026 | 61 | 0.0 | 0.0 | 0.00 | 0.00 | 0.00 | 71 | 1021.0 | |
| 20260903051521 | 62 | 0.0 | 0.0 | 0.00 | 0.00 | 0.00 | 71 | 1021.0 | |
| 20260903050017 | 63 | 0.0 | 0.0 | 0.00 | 0.00 | 0.00 | 70 | 1020.9 | |
| 20260903044513 | 63 | 0.0 | 0.0 | 0.00 | 0.00 | 0.00 | 70 | 1021.0 | |
| 20260903043008 | 64 | 0.0 | 0.0 | 0.00 | 0.00 | 0.00 | 68 | 1020.9 | |
| 20260903041504 | 64 | 0.0 | 0.0 | 0.00 | 0.00 | 0.00 | 67 | 1020.7 | |
| 20260903040100 | 65 | 0.0 | 0.0 | 0.00 | 0.00 | 0.00 | 67 | 1020.7 | |
| 20260903034601 | 66 | 0.0 | 0.0 | 0.00 | 0.00 | 0.00 | 67 | 1020.5 | |
| 20260903033051 | 67 | 0.0 | 0.0 | 0.00 | 0.00 | 0.00 | 64 | 1020.4 | |
| 20260903031549 | 67 | 0.0 | 0.0 | 0.00 | 0.00 | 0.00 | 62 | 1020.3 | |
| 20260903030043 | 68 | 0.0 | 0.0 | 0.00 | 0.00 | 0.00 | 61 | 1020.1 | |
| 20260903024538 | 69 | 0.0 | 0.0 | 0.00 | 0.00 | 0.00 | 60 | 1020.1 | |
| 20260903023034 | 70 | 0.0 | 0.0 | 0.00 | 0.00 | 0.00 | 58 | 1019.9 | |
| 20260903021530 | 71 | 0.0 | 0.0 | 0.00 | 0.00 | 0.00 | 57 | 1019.8 | |
| 20260903020045 | 72 | 0.0 | 0.0 | 0.00 | 0.00 | 0.00 | 55 | 1019.8 | |
| 20260903014520 | 73 | 0.0 | 0.0 | 0.00 | 0.00 | 0.00 | 51 | 1019.7 | |
| 20260903013016 | 75 | 0.0 | 0.0 | 0.00 | 0.00 | 0.00 | 51 | 1019.7 | |
| 20260903011512 | 75 | 0.0 | 0.0 | 0.00 | 0.00 | 0.00 | 51 | 1019.7 | |
| 20260903010007 | 76 | 0.0 | 0.0 | 0.00 | 0.00 | 0.00 | 48 | 1019.5 | |
| 20260903004502 | 77 | 0.0 | 0.0 | 0.00 | 0.00 | 0.00 | 47 | 1019.5 | |
| 20260903003100 | 78 | 0.0 | 0.0 | 0.00 | 0.00 | 0.00 | 46 | 1019.5 | |
| 20260903001554 | 79 | 0.0 | 0.0 | 0.00 | 0.00 | 0.00 | 45 | 1019.5 | |
| 20260903000050 | 79 | 0.0 | 0.0 | 0.00 | 0.00 | 0.00 | 44 | 1019.5 | |
| 20260902234554 | 79 | 0.0 | 0.0 | 0.00 | 0.00 | 0.00 | 44 | 1019.6 | |
| 20260902233041 | 80 | 0.0 | 0.0 | 0.00 | 0.00 | 0.00 | 44 | 1019.7 | |
| 20260902231538 | 80 | 0.0 | 0.0 | 0.00 | 0.00 | 0.00 | 42 | 1019.7 | |
| 20260902230034 | 81 | 0.0 | 0.0 | 0.00 | 0.00 | 0.00 | 43 | 1019.8 | |
| 20260902224528 | 81 | 0.0 | 0.0 | 0.00 | 0.00 | 0.00 | 41 | 1019.8 | |
| 20260902223029 | 81 | 0.0 | 0.0 | 0.00 | 0.00 | 0.00 | 40 | 1020.1 | |
| 20260902221525 | 83 | 0.0 | 0.0 | 0.00 | 0.00 | 0.00 | 39 | 1020.1 | |
| 20260902220020 | 83 | 0.0 | 0.0 | 0.00 | 0.00 | 0.00 | 39 | 1020.2 | |
| 20260902214510 | 84 | 0.0 | 0.0 | 0.00 | 0.00 | 0.00 | 36 | 1020.3 | |
| 20260902213006 | 84 | 0.0 | 0.0 | 0.00 | 0.00 | 0.00 | 34 | 1020.3 | |
| 20260902211502 | 86 | 0.0 | 0.0 | 0.00 | 0.00 | 0.00 | 32 | 1020.2 | |
| 20260902210058 | 86 | 0.0 | 0.0 | 0.00 | 0.00 | 0.00 | 30 | 1020.4 | |
| 20260902204553 | 86 | 0.0 | 0.0 | 0.00 | 0.00 | 0.00 | 32 | 1020.3 | |
| 20260902203049 | 85 | 0.0 | 0.0 | 0.00 | 0.00 | 0.00 | 27 | 1020.5 | |
| 20260902201555 | 85 | 0.0 | 0.0 | 0.00 | 0.00 | 0.00 | 28 | 1020.7 | |
| 20260902200040 | 84 | 0.0 | 0.0 | 0.00 | 0.00 | 0.00 | 30 | 1020.9 | |
| 20260902194536 | 84 | 0.0 | 0.0 | 0.00 | 0.00 | 0.00 | 29 | 1021.1 | |
| 20260902193032 | 83 | 0.0 | 0.0 | 0.00 | 0.00 | 0.00 | 30 | 1021.3 | |
| 20260902191527 | 83 | 0.0 | 0.0 | 0.00 | 0.00 | 0.00 | 28 | 1021.4 | |
| 20260902190026 | 82 | 0.0 | 0.0 | 0.00 | 0.00 | 0.00 | 26 | 1021.6 | |
| 20260902184519 | 81 | 0.0 | 0.0 | 0.00 | 0.00 | 0.00 | 33 | 1021.8 | |
| 20260902183019 | 82 | 0.0 | 0.0 | 0.00 | 0.00 | 0.00 | 31 | 1021.8 | |
| 20260902181510 | 81 | 0.0 | 0.0 | 0.00 | 0.00 | 0.00 | 30 | 1021.9 | |
| 20260902180007 | 81 | 0.0 | 0.0 | 0.00 | 0.00 | 0.00 | 26 | 1021.9 |